ACA270 CYWG-CYYZ

Flight info

Callsign ACA270
Flight time N/A
Altitude 37000
Route RORMA DCT AXOMA DCT SIDPO DCT DEGVA DCT FELTN DCT OTNIK BOXUM7
Aircraft A320/M-SDE3FGHIRWY/LB1

Departure

Time N/A
Airport Winnipeg / James Armstrong Richardson International Airport (CYWG)

Arrival

Time 2026-05-06 19:08
Airport Toronto Pearson International Airport (CYYZ)
Time Latitude Longitude Altitude Speed Heading
2026-05-06 18:34 45.48122 -81.88765 36946 ft 479 kts 145°
2026-05-06 18:34 45.43264 -81.82263 36964 ft 480 kts 145°
2026-05-06 18:35 45.38420 -81.75813 36975 ft 480 kts 145°
2026-05-06 18:35 45.33542 -81.69344 36979 ft 480 kts 145°
2026-05-06 18:36 45.28659 -81.62885 36982 ft 480 kts 145°
2026-05-06 18:36 45.23765 -81.56421 36948 ft 480 kts 146°
2026-05-06 18:37 45.19707 -81.51065 36969 ft 480 kts 146°
2026-05-06 18:37 45.13983 -81.43539 36968 ft 480 kts 146°
2026-05-06 18:38 45.09088 -81.37117 36854 ft 480 kts 146°
2026-05-06 18:38 45.06638 -81.33911 36599 ft 479 kts 146°
2026-05-06 18:38 45.04190 -81.30720 36317 ft 479 kts 146°
2026-05-06 18:39 45.01739 -81.27526 36072 ft 480 kts 146°
2026-05-06 18:39 45.00112 -81.25405 35902 ft 480 kts 146°
2026-05-06 18:39 44.97659 -81.22203 35663 ft 480 kts 146°
2026-05-06 18:40 44.92753 -81.15803 35150 ft 480 kts 146°
2026-05-06 18:40 44.90294 -81.12607 34911 ft 480 kts 146°
2026-05-06 18:40 44.87841 -81.09422 34673 ft 480 kts 146°
2026-05-06 18:40 44.85381 -81.06232 34446 ft 480 kts 146°
2026-05-06 18:41 44.82918 -81.03044 34193 ft 481 kts 146°
2026-05-06 18:41 44.80451 -80.99860 33961 ft 481 kts 146°
2026-05-06 18:41 44.77976 -80.96675 33690 ft 482 kts 146°
2026-05-06 18:41 44.75507 -80.93494 33419 ft 482 kts 146°
2026-05-06 18:42 44.73034 -80.90307 33147 ft 482 kts 147°
2026-05-06 18:42 44.70561 -80.87126 32835 ft 481 kts 146°
2026-05-06 18:42 44.68088 -80.83947 32534 ft 480 kts 146°
2026-05-06 18:42 44.65620 -80.80781 31411 ft 485 kts 147°
2026-05-06 18:43 44.63110 -80.77577 30187 ft 489 kts 148°
2026-05-06 18:43 44.60573 -80.74344 28789 ft 493 kts 147°
2026-05-06 18:43 44.58041 -80.71111 27540 ft 493 kts 147°
2026-05-06 18:43 44.55524 -80.67885 26832 ft 485 kts 147°
2026-05-06 18:44 44.53045 -80.64702 25674 ft 485 kts 147°
2026-05-06 18:44 44.50539 -80.61507 24521 ft 488 kts 147°
2026-05-06 18:44 44.48052 -80.58337 23770 ft 480 kts 147°
2026-05-06 18:44 44.45590 -80.55199 22885 ft 476 kts 147°
2026-05-06 18:45 44.43164 -80.52111 22161 ft 466 kts 146°
2026-05-06 18:45 44.40783 -80.49089 21485 ft 459 kts 146°
2026-05-06 18:45 44.38463 -80.46153 20829 ft 452 kts 146°
2026-05-06 18:45 44.36148 -80.43227 20200 ft 445 kts 146°
2026-05-06 18:46 44.33866 -80.40342 19590 ft 439 kts 146°
2026-05-06 18:46 44.31587 -80.37461 19003 ft 434 kts 146°
2026-05-06 18:46 44.29388 -80.34691 18448 ft 428 kts 146°
2026-05-06 18:46 44.27187 -80.31924 17847 ft 423 kts 146°
2026-05-06 18:47 44.25012 -80.29194 17287 ft 418 kts 146°
2026-05-06 18:47 44.22864 -80.26496 16736 ft 413 kts 146°
2026-05-06 18:47 44.20744 -80.23836 16165 ft 409 kts 146°
2026-05-06 18:47 44.18640 -80.21197 15568 ft 405 kts 146°
2026-05-06 18:48 44.16548 -80.18577 14942 ft 403 kts 146°
2026-05-06 18:48 44.14464 -80.15963 14278 ft 402 kts 145°
2026-05-06 18:48 44.12392 -80.13367 13707 ft 399 kts 145°
2026-05-06 18:48 44.10371 -80.10825 13540 ft 383 kts 145°
2026-05-06 18:49 44.08434 -80.08381 13409 ft 368 kts 146°
2026-05-06 18:49 44.06572 -80.06044 13271 ft 354 kts 146°
2026-05-06 18:49 44.04774 -80.03801 13138 ft 341 kts 146°
2026-05-06 18:49 44.03040 -80.01642 13007 ft 329 kts 147°
2026-05-06 18:50 44.01354 -79.99572 12837 ft 318 kts 149°
2026-05-06 18:50 43.99649 -79.97672 12475 ft 313 kts 151°
2026-05-06 18:50 43.97915 -79.95874 12139 ft 308 kts 152°
2026-05-06 18:50 43.96182 -79.94125 11749 ft 306 kts 152°
2026-05-06 18:51 43.94461 -79.92392 11348 ft 306 kts 152°
2026-05-06 18:51 43.92753 -79.90659 10983 ft 304 kts 151°
2026-05-06 18:51 43.91063 -79.88928 10632 ft 301 kts 151°
2026-05-06 18:51 43.89385 -79.87199 10293 ft 299 kts 150°
2026-05-06 18:52 43.87722 -79.85476 9909 ft 297 kts 150°
2026-05-06 18:52 43.86076 -79.83766 9496 ft 296 kts 149°
2026-05-06 18:52 43.84458 -79.82087 9127 ft 293 kts 149°
2026-05-06 18:52 43.82837 -79.80404 8748 ft 290 kts 149°
2026-05-06 18:53 43.81231 -79.78737 8388 ft 287 kts 148°
2026-05-06 18:53 43.79667 -79.77110 8278 ft 274 kts 148°
2026-05-06 18:53 43.78180 -79.75559 8170 ft 261 kts 149°
2026-05-06 18:53 43.76761 -79.74084 8063 ft 249 kts 149°
2026-05-06 18:54 43.75513 -79.72487 7951 ft 244 kts 130°
2026-05-06 18:54 43.74802 -79.70358 7830 ft 248 kts 104°
2026-05-06 18:54 43.74586 -79.67981 7705 ft 249 kts 98°
2026-05-06 18:54 43.74404 -79.65605 7573 ft 247 kts 98°
2026-05-06 18:55 43.74220 -79.63245 7437 ft 247 kts 98°
2026-05-06 18:55 43.74035 -79.60894 7309 ft 245 kts 98°
2026-05-06 18:55 43.73849 -79.58554 7180 ft 244 kts 98°
2026-05-06 18:55 43.73644 -79.56227 7041 ft 242 kts 105°
2026-05-06 18:56 43.73086 -79.54063 6923 ft 237 kts 123°
2026-05-06 18:56 43.72126 -79.52257 6801 ft 231 kts 140°
2026-05-06 18:56 43.70959 -79.50742 6678 ft 230 kts 141°
2026-05-06 18:56 43.69793 -79.49230 6550 ft 229 kts 141°
2026-05-06 18:57 43.68634 -79.47723 6429 ft 229 kts 141°
2026-05-06 18:57 43.67477 -79.46213 6308 ft 228 kts 140°
2026-05-06 18:57 43.66325 -79.44711 6183 ft 228 kts 140°
2026-05-06 18:57 43.65171 -79.43211 6061 ft 228 kts 140°
2026-05-06 18:58 43.64015 -79.41710 5939 ft 228 kts 141°
2026-05-06 18:58 43.62857 -79.40208 5820 ft 228 kts 141°
2026-05-06 18:58 43.61701 -79.38712 5704 ft 228 kts 141°
2026-05-06 18:58 43.60547 -79.37215 5582 ft 227 kts 140°
2026-05-06 18:59 43.59396 -79.35720 5464 ft 227 kts 141°
2026-05-06 18:59 43.58240 -79.34287 5349 ft 226 kts 142°
2026-05-06 18:59 43.57040 -79.32850 5230 ft 225 kts 143°
2026-05-06 18:59 43.55868 -79.31460 5115 ft 225 kts 143°
2026-05-06 19:00 43.54648 -79.30123 4975 ft 222 kts 153°
2026-05-06 19:00 43.53251 -79.29296 4816 ft 216 kts 173°
2026-05-06 19:00 43.51789 -79.29351 4504 ft 209 kts 200°
2026-05-06 19:00 43.50506 -79.30231 4164 ft 204 kts 221°
2026-05-06 19:01 43.49545 -79.31605 4063 ft 200 kts 238°
2026-05-06 19:01 43.48941 -79.33318 3916 ft 198 kts 255°
2026-05-06 19:01 43.48756 -79.35192 3767 ft 199 kts 271°
2026-05-06 19:01 43.49004 -79.37065 3606 ft 200 kts 289°
2026-05-06 19:02 43.49673 -79.38750 3446 ft 203 kts 306°
2026-05-06 19:02 43.50672 -79.40135 3334 ft 205 kts 314°
2026-05-06 19:02 43.51701 -79.41466 3244 ft 198 kts 314°
2026-05-06 19:02 43.52675 -79.42727 3159 ft 189 kts 314°
2026-05-06 19:03 43.53618 -79.43950 3077 ft 185 kts 315°
2026-05-06 19:03 43.54549 -79.45157 2988 ft 182 kts 317°
2026-05-06 19:03 43.55468 -79.46350 2927 ft 181 kts 317°
2026-05-06 19:03 43.56388 -79.47543 2930 ft 181 kts 317°
2026-05-06 19:04 43.57308 -79.48737 2927 ft 182 kts 317°
2026-05-06 19:04 43.58225 -79.49929 2915 ft 181 kts 317°
2026-05-06 19:04 43.59139 -79.51116 2785 ft 175 kts 317°
2026-05-06 19:04 43.59987 -79.52219 2558 ft 161 kts 317°
2026-05-06 19:05 43.60764 -79.53229 2339 ft 147 kts 318°
2026-05-06 19:05 43.61469 -79.54146 2174 ft 135 kts 319°
2026-05-06 19:05 43.62146 -79.55028 1978 ft 133 kts 318°
2026-05-06 19:05 43.62811 -79.55892 1807 ft 130 kts 320°
2026-05-06 19:06 43.63469 -79.56749 1626 ft 131 kts 318°
2026-05-06 19:06 43.64123 -79.57601 1429 ft 128 kts 320°
2026-05-06 19:06 43.64770 -79.58443 1240 ft 127 kts 320°
2026-05-06 19:06 43.65401 -79.59265 1057 ft 126 kts 320°
2026-05-06 19:07 43.66041 -79.60090 873 ft 125 kts 321°
2026-05-06 19:07 43.66661 -79.60933 721 ft 124 kts 319°
2026-05-06 19:07 43.67295 -79.61732 586 ft 122 kts 321°
2026-05-06 19:07 43.67841 -79.62431 566 ft 85 kts 316°
2026-05-06 19:08 43.68144 -79.62838 570 ft 41 kts 314°
2026-05-06 19:08 43.68282 -79.62962 571 ft 16 kts 26°
2026-05-06 19:08 43.68352 -79.62866 569 ft 13 kts 48°
2026-05-06 19:08 43.68424 -79.62755 569 ft 15 kts 49°
2026-05-06 19:09 43.68394 -79.62641 567 ft 13 kts 137°
2026-05-06 19:09 43.68328 -79.62556 563 ft 12 kts 137°
2026-05-06 19:09 43.68265 -79.62476 566 ft 12 kts 137°
2026-05-06 19:09 43.68204 -79.62399 562 ft 12 kts 137°
2026-05-06 19:10 43.68145 -79.62325 562 ft 14 kts 138°
2026-05-06 19:10 43.68045 -79.62192 562 ft 28 kts 133°
2026-05-06 19:10 43.67971 -79.62033 563 ft 12 kts 54°
2026-05-06 19:10 43.67966 -79.61935 567 ft 12 kts 135°
2026-05-06 19:11 43.67898 -79.61886 568 ft 11 kts 155°
2026-05-06 19:11 43.67840 -79.61834 565 ft 9 kts 138°
2026-05-06 19:11 43.67813 -79.61768 564 ft 7 kts 63°
2026-05-06 19:11 43.67849 -79.61712 568 ft 9 kts 47°
2026-05-06 19:12 43.67854 -79.61703 562 ft 1 kts 47°
2026-05-06 19:12 43.67855 -79.61703 562 ft 0 kts 47°